SITE: BDASe,YEAR: 2008,,,,,,
2008date,time,pzhd (cm),gw temp (C),DWT (cm),WT elev (m),,
01/01/08,0:00,265.0,12.5,103.6,1372.444,,Depth to water table:
01/01/08,0:30,265.4,12.5,103.2,1372.448,,DWT = SCL - CH - h (all values in cm)
01/01/08,1:00,265.5,12.5,103.1,1372.449,,where
01/01/08,1:30,265.4,12.5,103.2,1372.448,,SCL = sensor cable length = 516.0 cm
01/01/08,2:00,264.8,12.5,103.8,1372.442,,CH = casing height of well = 147.4 cm
01/01/08,2:30,264.6,12.5,104.0,1372.440,,h = height of water above sensor (from pzhd column)
01/01/08,3:00,264.6,12.5,104.0,1372.440,,
01/01/08,3:30,264.2,12.5,104.4,1372.436,,WT elevation:
01/01/08,4:00,264.7,12.5,103.9,1372.441,,Sensor elev = 1369.794 m asl
01/01/08,4:30,264.2,12.5,104.4,1372.436,,WT elev = sensor elev + h (from pzhd column)
01/01/08,5:00,264.6,12.5,104.0,1372.440,,
01/01/08,5:30,264.8,12.5,103.8,1372.442,,
01/01/08,6:00,264.6,12.5,104.0,1372.440,,
01/01/08,6:30,264.9,12.5,103.7,1372.443,,Dates with missing data (# 0.5 hr data points):
01/01/08,7:00,264.7,12.5,103.9,1372.441,,"3/11 (1), 3/25 (1)."
01/01/08,7:30,264.4,12.5,104.2,1372.438,,
01/01/08,8:00,264.7,12.5,103.9,1372.441,,
01/01/08,8:30,265.3,12.5,103.3,1372.447,,Dates w/missing T data:
01/01/08,9:00,264.8,12.4,103.8,1372.442,,"Feb 20, 22, Mar 11, 25, Jun 20, Jul 18, 21, Sep 20, 30, Oct 3, 27."
01/01/08,9:30,264.7,12.4,103.9,1372.441,,
01/01/08,10:00,264.2,12.5,104.4,1372.436,,
01/01/08,10:30,264.3,12.5,104.3,1372.437,,
01/01/08,11:00,264.2,12.5,104.4,1372.436,,
01/01/08,11:30,264.6,12.5,104.0,1372.440,,
01/01/08,12:00,265.4,12.5,103.2,1372.448,,
01/01/08,12:30,265.8,12.5,102.8,1372.452,,
01/01/08,13:00,265.3,12.5,103.3,1372.447,,
01/01/08,13:30,266.4,12.5,102.2,1372.458,,
01/01/08,14:00,266.3,12.5,102.3,1372.457,,
01/01/08,14:30,266.5,12.5,102.1,1372.459,,
01/01/08,15:00,267.2,12.5,101.4,1372.466,,
01/01/08,15:30,267.1,12.5,101.5,1372.465,,
01/01/08,16:00,267.3,12.5,101.3,1372.467,,
01/01/08,16:30,267.0,12.5,101.6,1372.464,,
01/01/08,17:00,267.3,12.5,101.3,1372.467,,
01/01/08,17:30,267.2,12.5,101.4,1372.466,,
01/01/08,18:00,267.0,12.5,101.6,1372.464,,
01/01/08,18:30,267.7,12.5,100.9,1372.471,,
01/01/08,19:00,266.4,12.4,102.2,1372.458,,
01/01/08,19:30,266.3,12.5,102.3,1372.457,,
01/01/08,20:00,266.4,12.4,102.2,1372.458,,
01/01/08,20:30,266.4,12.5,102.2,1372.458,,
01/01/08,21:00,266.6,12.5,102.0,1372.460,,
01/01/08,21:30,266.4,12.4,102.2,1372.458,,
01/01/08,22:00,266.6,12.5,102.0,1372.460,,
01/01/08,22:30,266.7,12.4,101.9,1372.461,,
01/01/08,23:00,266.5,12.5,102.1,1372.459,,
01/01/08,23:30,266.5,12.4,102.1,1372.459,,
01/02/08,0:00,266.5,12.5,102.1,1372.459,,
01/02/08,0:30,266.2,12.4,102.4,1372.456,,
01/02/08,1:00,266.0,12.5,102.6,1372.454,,
01/02/08,1:30,265.6,12.5,103.0,1372.450,,
01/02/08,2:00,265.9,12.4,102.7,1372.453,,
01/02/08,2:30,265.5,12.5,103.1,1372.449,,
01/02/08,3:00,265.8,12.5,102.8,1372.452,,
01/02/08,3:30,265.6,12.5,103.0,1372.450,,
01/02/08,4:00,266.0,12.5,102.6,1372.454,,
01/02/08,4:30,266.1,12.5,102.5,1372.455,,
01/02/08,5:00,266.7,12.5,101.9,1372.461,,
01/02/08,5:30,266.3,12.5,102.3,1372.457,,
01/02/08,6:00,266.6,12.4,102.0,1372.460,,
01/02/08,6:30,266.6,12.5,102.0,1372.460,,
01/02/08,7:00,266.2,12.5,102.4,1372.456,,
01/02/08,7:30,266.7,12.5,101.9,1372.461,,
01/02/08,8:00,266.9,12.4,101.7,1372.463,,
01/02/08,8:30,266.4,12.5,102.2,1372.458,,
01/02/08,9:00,266.7,12.5,101.9,1372.461,,
01/02/08,9:30,266.4,12.5,102.2,1372.458,,
01/02/08,10:00,267.0,12.5,101.6,1372.464,,
01/02/08,10:30,267.0,12.5,101.6,1372.464,,
01/02/08,11:00,266.6,12.5,102.0,1372.460,,
01/02/08,11:30,267.0,12.4,101.6,1372.464,,
01/02/08,12:00,267.3,12.5,101.3,1372.467,,
01/02/08,12:30,268.1,12.4,100.5,1372.475,,
01/02/08,13:00,268.1,12.5,100.5,1372.475,,
01/02/08,13:30,268.5,12.4,100.1,1372.479,,
01/02/08,14:00,268.9,12.4,99.7,1372.483,,
01/02/08,14:30,268.9,12.4,99.7,1372.483,,
01/02/08,15:00,269.1,12.4,99.5,1372.485,,
01/02/08,15:30,269.1,12.5,99.5,1372.485,,
01/02/08,16:00,269.2,12.5,99.4,1372.486,,
01/02/08,16:30,269.5,12.5,99.1,1372.489,,
01/02/08,17:00,269.7,12.4,98.9,1372.491,,
01/02/08,17:30,269.8,12.5,98.8,1372.492,,
01/02/08,18:00,269.3,12.5,99.3,1372.487,,
01/02/08,18:30,269.2,12.4,99.4,1372.486,,
01/02/08,19:00,268.9,12.4,99.7,1372.483,,
01/02/08,19:30,269.2,12.4,99.4,1372.486,,
01/02/08,20:00,268.7,12.4,99.9,1372.481,,
01/02/08,20:30,268.7,12.4,99.9,1372.481,,
01/02/08,21:00,269.4,12.4,99.2,1372.488,,
01/02/08,21:30,269.2,12.4,99.4,1372.486,,
01/02/08,22:00,268.8,12.4,99.8,1372.482,,
01/02/08,22:30,268.1,12.4,100.5,1372.475,,
01/02/08,23:00,268.9,12.4,99.7,1372.483,,
01/02/08,23:30,268.5,12.4,100.1,1372.479,,
01/03/08,0:00,268.7,12.4,99.9,1372.481,,
01/03/08,0:30,268.3,12.5,100.3,1372.477,,
01/03/08,1:00,269.1,12.4,99.5,1372.485,,
01/03/08,1:30,268.6,12.4,100.0,1372.480,,
01/03/08,2:00,268.8,12.4,99.8,1372.482,,
01/03/08,2:30,268.8,12.4,99.8,1372.482,,
01/03/08,3:00,269.1,12.4,99.5,1372.485,,
01/03/08,3:30,269.0,12.4,99.6,1372.484,,
01/03/08,4:00,269.1,12.5,99.5,1372.485,,
01/03/08,4:30,269.0,12.4,99.6,1372.484,,
01/03/08,5:00,268.9,12.5,99.7,1372.483,,
01/03/08,5:30,269.0,12.4,99.6,1372.484,,
01/03/08,6:00,268.9,12.4,99.7,1372.483,,
01/03/08,6:30,269.0,12.4,99.6,1372.484,,
01/03/08,7:00,268.8,12.3,99.8,1372.482,,
01/03/08,7:30,269.3,12.4,99.3,1372.487,,
01/03/08,8:00,269.2,12.4,99.4,1372.486,,
01/03/08,8:30,268.8,12.4,99.8,1372.482,,
01/03/08,9:00,268.4,12.4,100.2,1372.478,,
01/03/08,9:30,268.5,12.4,100.1,1372.479,,
01/03/08,10:00,268.7,12.3,99.9,1372.481,,
01/03/08,10:30,268.6,12.4,100.0,1372.480,,
01/03/08,11:00,269.4,12.5,99.2,1372.488,,
01/03/08,11:30,270.2,12.4,98.4,1372.496,,
01/03/08,12:00,269.4,12.4,99.2,1372.488,,
01/03/08,12:30,270.3,12.4,98.3,1372.497,,
01/03/08,13:00,270.4,12.4,98.2,1372.498,,
01/03/08,13:30,271.0,12.4,97.6,1372.504,,
01/03/08,14:00,271.2,12.4,97.4,1372.506,,
01/03/08,14:30,271.1,12.4,97.5,1372.505,,
01/03/08,15:00,271.0,12.3,97.6,1372.504,,
01/03/08,15:30,271.5,12.4,97.1,1372.509,,
01/03/08,16:00,271.3,12.4,97.3,1372.507,,
01/03/08,16:30,271.6,12.3,97.0,1372.510,,
01/03/08,17:00,271.5,12.4,97.1,1372.509,,
01/03/08,17:30,271.4,12.5,97.2,1372.508,,
01/03/08,18:00,270.6,12.4,98.0,1372.500,,
01/03/08,18:30,270.6,12.3,98.0,1372.500,,
01/03/08,19:00,270.0,12.4,98.6,1372.494,,
01/03/08,19:30,270.1,12.4,98.5,1372.495,,
01/03/08,20:00,269.7,12.4,98.9,1372.491,,
01/03/08,20:30,269.7,12.4,98.9,1372.491,,
01/03/08,21:00,270.0,12.4,98.6,1372.494,,
01/03/08,21:30,270.4,12.4,98.2,1372.498,,
01/03/08,22:00,269.8,12.4,98.8,1372.492,,
01/03/08,22:30,270.3,12.4,98.3,1372.497,,
01/03/08,23:00,270.3,12.4,98.3,1372.497,,
01/03/08,23:30,270.2,12.4,98.4,1372.496,,
01/04/08,0:00,270.5,12.4,98.1,1372.499,,
01/04/08,0:30,270.4,12.4,98.2,1372.498,,
01/04/08,1:00,270.8,12.3,97.8,1372.502,,
01/04/08,1:30,270.6,12.4,98.0,1372.500,,
01/04/08,2:00,270.5,12.4,98.1,1372.499,,
01/04/08,2:30,270.7,12.4,97.9,1372.501,,
01/04/08,3:00,270.5,12.4,98.1,1372.499,,
01/04/08,3:30,270.6,12.3,98.0,1372.500,,
01/04/08,4:00,270.3,12.4,98.3,1372.497,,
01/04/08,4:30,270.5,12.3,98.1,1372.499,,
01/04/08,5:00,270.9,12.3,97.7,1372.503,,
01/04/08,5:30,270.3,12.3,98.3,1372.497,,
01/04/08,6:00,270.7,12.3,97.9,1372.501,,
01/04/08,6:30,270.6,12.4,98.0,1372.500,,
01/04/08,7:00,270.2,12.3,98.4,1372.496,,
01/04/08,7:30,270.5,12.4,98.1,1372.499,,
01/04/08,8:00,270.5,12.3,98.1,1372.499,,
01/04/08,8:30,269.9,12.3,98.7,1372.493,,
01/04/08,9:00,269.8,12.4,98.8,1372.492,,
01/04/08,9:30,269.6,12.4,99.0,1372.490,,
01/04/08,10:00,269.7,12.4,98.9,1372.491,,
01/04/08,10:30,269.8,12.3,98.8,1372.492,,
01/04/08,11:00,269.6,12.3,99.0,1372.490,,
01/04/08,11:30,270.0,12.4,98.6,1372.494,,
01/04/08,12:00,269.9,12.4,98.7,1372.493,,
01/04/08,12:30,270.5,12.4,98.1,1372.499,,
01/04/08,13:00,270.4,12.4,98.2,1372.498,,
01/04/08,13:30,270.6,12.3,98.0,1372.500,,
01/04/08,14:00,270.6,12.3,98.0,1372.500,,
01/04/08,14:30,270.9,12.3,97.7,1372.503,,
01/04/08,15:00,271.4,12.4,97.2,1372.508,,
01/04/08,15:30,270.7,12.3,97.9,1372.501,,
01/04/08,16:00,271.2,12.3,97.4,1372.506,,
01/04/08,16:30,270.7,12.3,97.9,1372.501,,
01/04/08,17:00,271.1,12.3,97.5,1372.505,,
01/04/08,17:30,270.9,12.4,97.7,1372.503,,
01/04/08,18:00,271.4,12.3,97.2,1372.508,,
01/04/08,18:30,271.0,12.4,97.6,1372.504,,
01/04/08,19:00,270.8,12.4,97.8,1372.502,,
01/04/08,19:30,270.6,12.3,98.0,1372.500,,
01/04/08,20:00,270.4,12.4,98.2,1372.498,,
01/04/08,20:30,270.3,12.4,98.3,1372.497,,
01/04/08,21:00,270.1,12.3,98.5,1372.495,,
01/04/08,21:30,270.2,12.4,98.4,1372.496,,
01/04/08,22:00,270.6,12.3,98.0,1372.500,,
01/04/08,22:30,270.3,12.3,98.3,1372.497,,
01/04/08,23:00,270.6,12.3,98.0,1372.500,,
01/04/08,23:30,270.4,12.4,98.2,1372.498,,
01/05/08,0:00,270.3,12.3,98.3,1372.497,,
01/05/08,0:30,270.6,12.4,98.0,1372.500,,
01/05/08,1:00,270.4,12.3,98.2,1372.498,,
01/05/08,1:30,270.8,12.3,97.8,1372.502,,
01/05/08,2:00,270.8,12.3,97.8,1372.502,,
01/05/08,2:30,271.6,12.3,97.0,1372.510,,
01/05/08,3:00,271.0,12.3,97.6,1372.504,,
01/05/08,3:30,271.6,12.3,97.0,1372.510,,
01/05/08,4:00,271.7,12.4,96.9,1372.511,,
01/05/08,4:30,271.7,12.4,96.9,1372.511,,
01/05/08,5:00,271.8,12.4,96.8,1372.512,,
01/05/08,5:30,271.5,12.3,97.1,1372.509,,
01/05/08,6:00,271.3,12.4,97.3,1372.507,,
01/05/08,6:30,271.5,12.3,97.1,1372.509,,
01/05/08,7:00,271.3,12.3,97.3,1372.507,,
01/05/08,7:30,271.2,12.4,97.4,1372.506,,
01/05/08,8:00,271.2,12.3,97.4,1372.506,,
01/05/08,8:30,271.1,12.4,97.5,1372.505,,
01/05/08,9:00,271.0,12.4,97.6,1372.504,,
01/05/08,9:30,271.1,12.4,97.5,1372.505,,
01/05/08,10:00,271.0,12.4,97.6,1372.504,,
01/05/08,10:30,271.2,12.3,97.4,1372.506,,
01/05/08,11:00,271.0,12.3,97.6,1372.504,,
01/05/08,11:30,270.6,12.3,98.0,1372.500,,
01/05/08,12:00,270.9,12.3,97.7,1372.503,,
01/05/08,12:30,271.0,12.3,97.6,1372.504,,
01/05/08,13:00,271.4,12.3,97.2,1372.508,,
01/05/08,13:30,271.2,12.3,97.4,1372.506,,
01/05/08,14:00,271.4,12.3,97.2,1372.508,,
01/05/08,14:30,272.4,12.3,96.2,1372.518,,
01/05/08,15:00,272.7,12.3,95.9,1372.521,,
01/05/08,15:30,272.9,12.3,95.7,1372.523,,
01/05/08,16:00,272.7,12.3,95.9,1372.521,,
01/05/08,16:30,272.6,12.3,96.0,1372.520,,
01/05/08,17:00,273.0,12.3,95.6,1372.524,,
01/05/08,17:30,273.0,12.3,95.6,1372.524,,
01/05/08,18:00,272.6,12.3,96.0,1372.520,,
01/05/08,18:30,272.3,12.3,96.3,1372.517,,
01/05/08,19:00,272.5,12.3,96.1,1372.519,,
01/05/08,19:30,272.2,12.3,96.4,1372.516,,
01/05/08,20:00,272.1,12.3,96.5,1372.515,,
01/05/08,20:30,271.5,12.3,97.1,1372.509,,
01/05/08,21:00,271.4,12.3,97.2,1372.508,,
01/05/08,21:30,271.8,12.3,96.8,1372.512,,
01/05/08,22:00,272.2,12.3,96.4,1372.516,,
01/05/08,22:30,272.1,12.3,96.5,1372.515,,
01/05/08,23:00,272.6,12.3,96.0,1372.520,,
01/05/08,23:30,272.4,12.3,96.2,1372.518,,
01/06/08,0:00,272.0,12.3,96.6,1372.514,,
01/06/08,0:30,272.6,12.4,96.0,1372.520,,
01/06/08,1:00,272.6,12.3,96.0,1372.520,,
01/06/08,1:30,271.9,12.3,96.7,1372.513,,
01/06/08,2:00,272.5,12.3,96.1,1372.519,,
01/06/08,2:30,272.3,12.3,96.3,1372.517,,
01/06/08,3:00,272.5,12.3,96.1,1372.519,,
01/06/08,3:30,272.6,12.3,96.0,1372.520,,
01/06/08,4:00,272.4,12.3,96.2,1372.518,,
01/06/08,4:30,272.4,12.3,96.2,1372.518,,
01/06/08,5:00,272.4,12.3,96.2,1372.518,,
01/06/08,5:30,272.7,12.3,95.9,1372.521,,
01/06/08,6:00,272.6,12.3,96.0,1372.520,,
01/06/08,6:30,272.8,12.3,95.8,1372.522,,
01/06/08,7:00,272.5,12.3,96.1,1372.519,,
01/06/08,7:30,272.1,12.3,96.5,1372.515,,
01/06/08,8:00,272.3,12.3,96.3,1372.517,,
01/06/08,8:30,272.5,12.3,96.1,1372.519,,
01/06/08,9:00,272.0,12.3,96.6,1372.514,,
01/06/08,9:30,272.3,12.3,96.3,1372.517,,
01/06/08,10:00,272.3,12.3,96.3,1372.517,,
01/06/08,10:30,272.2,12.3,96.4,1372.516,,
01/06/08,11:00,272.1,12.3,96.5,1372.515,,
01/06/08,11:30,271.5,12.3,97.1,1372.509,,
01/06/08,12:00,271.6,12.3,97.0,1372.510,,
01/06/08,12:30,271.6,12.3,97.0,1372.510,,
01/06/08,13:00,271.9,12.3,96.7,1372.513,,
01/06/08,13:30,272.4,12.3,96.2,1372.518,,
01/06/08,14:00,272.6,12.3,96.0,1372.520,,
01/06/08,14:30,272.3,12.3,96.3,1372.517,,
01/06/08,15:00,272.7,12.3,95.9,1372.521,,
01/06/08,15:30,272.5,12.3,96.1,1372.519,,
01/06/08,16:00,272.4,12.3,96.2,1372.518,,
01/06/08,16:30,272.4,12.3,96.2,1372.518,,
01/06/08,17:00,272.2,12.3,96.4,1372.516,,
01/06/08,17:30,272.1,12.3,96.5,1372.515,,
01/06/08,18:00,272.3,12.3,96.3,1372.517,,
01/06/08,18:30,272.0,12.3,96.6,1372.514,,
01/06/08,19:00,271.8,12.3,96.8,1372.512,,
01/06/08,19:30,271.4,12.3,97.2,1372.508,,
01/06/08,20:00,271.4,12.3,97.2,1372.508,,
01/06/08,20:30,271.4,12.3,97.2,1372.508,,
01/06/08,21:00,271.6,12.3,97.0,1372.510,,
01/06/08,21:30,271.6,12.3,97.0,1372.510,,
01/06/08,22:00,272.0,12.3,96.6,1372.514,,
01/06/08,22:30,271.6,12.3,97.0,1372.510,,
01/06/08,23:00,271.6,12.3,97.0,1372.510,,
01/06/08,23:30,271.3,12.3,97.3,1372.507,,
01/07/08,0:00,271.7,12.3,96.9,1372.511,,
01/07/08,0:30,271.6,12.3,97.0,1372.510,,
01/07/08,1:00,271.4,12.3,97.2,1372.508,,
01/07/08,1:30,271.9,12.3,96.7,1372.513,,
01/07/08,2:00,272.7,12.3,95.9,1372.521,,
01/07/08,2:30,271.6,12.3,97.0,1372.510,,
01/07/08,3:00,272.4,12.3,96.2,1372.518,,
01/07/08,3:30,272.3,12.3,96.3,1372.517,,
01/07/08,4:00,272.4,12.3,96.2,1372.518,,
01/07/08,4:30,271.9,12.2,96.7,1372.513,,
01/07/08,5:00,271.9,12.3,96.7,1372.513,,
01/07/08,5:30,272.4,12.3,96.2,1372.518,,
01/07/08,6:00,272.1,12.3,96.5,1372.515,,
01/07/08,6:30,272.4,12.3,96.2,1372.518,,
01/07/08,7:00,272.4,12.3,96.2,1372.518,,
01/07/08,7:30,273.0,12.3,95.6,1372.524,,
01/07/08,8:00,272.9,12.3,95.7,1372.523,,
01/07/08,8:30,272.1,12.2,96.5,1372.515,,
01/07/08,9:00,272.7,12.3,95.9,1372.521,,
01/07/08,9:30,272.2,12.2,96.4,1372.516,,
01/07/08,10:00,272.1,12.2,96.5,1372.515,,
01/07/08,10:30,272.0,12.3,96.6,1372.514,,
01/07/08,11:00,272.1,12.3,96.5,1372.515,,
01/07/08,11:30,272.3,12.3,96.3,1372.517,,
01/07/08,12:00,272.0,12.3,96.6,1372.514,,
01/07/08,12:30,272.1,12.3,96.5,1372.515,,
01/07/08,13:00,271.6,12.3,97.0,1372.510,,
01/07/08,13:30,272.8,12.2,95.8,1372.522,,
01/07/08,14:00,272.6,12.3,96.0,1372.520,,
01/07/08,14:30,272.7,12.3,95.9,1372.521,,
01/07/08,15:00,272.7,12.2,95.9,1372.521,,
01/07/08,15:30,272.7,12.2,95.9,1372.521,,
01/07/08,16:00,272.5,12.2,96.1,1372.519,,
01/07/08,16:30,272.7,12.3,95.9,1372.521,,
01/07/08,17:00,272.5,12.3,96.1,1372.519,,
01/07/08,17:30,271.8,12.3,96.8,1372.512,,
01/07/08,18:00,272.3,12.2,96.3,1372.517,,
01/07/08,18:30,271.8,12.3,96.8,1372.512,,
01/07/08,19:00,271.4,12.3,97.2,1372.508,,
01/07/08,19:30,271.2,12.3,97.4,1372.506,,
01/07/08,20:00,270.6,12.3,98.0,1372.500,,
01/07/08,20:30,270.9,12.3,97.7,1372.503,,
01/07/08,21:00,271.1,12.3,97.5,1372.505,,
01/07/08,21:30,270.1,12.3,98.5,1372.495,,
01/07/08,22:00,270.3,12.2,98.3,1372.497,,
01/07/08,22:30,269.9,12.2,98.7,1372.493,,
01/07/08,23:00,269.9,12.3,98.7,1372.493,,
01/07/08,23:30,270.1,12.2,98.5,1372.495,,
01/08/08,0:00,269.9,12.2,98.7,1372.493,,
01/08/08,0:30,269.7,12.2,98.9,1372.491,,
01/08/08,1:00,270.1,12.3,98.5,1372.495,,
01/08/08,1:30,269.6,12.3,99.0,1372.490,,
01/08/08,2:00,269.8,12.3,98.8,1372.492,,
01/08/08,2:30,269.8,12.2,98.8,1372.492,,
01/08/08,3:00,269.3,12.2,99.3,1372.487,,
01/08/08,3:30,269.2,12.2,99.4,1372.486,,
01/08/08,4:00,269.1,12.2,99.5,1372.485,,
01/08/08,4:30,269.4,12.3,99.2,1372.488,,
01/08/08,5:00,269.2,12.2,99.4,1372.486,,
01/08/08,5:30,268.9,12.2,99.7,1372.483,,
01/08/08,6:00,268.3,12.3,100.3,1372.477,,
01/08/08,6:30,268.8,12.3,99.8,1372.482,,
01/08/08,7:00,268.8,12.2,99.8,1372.482,,
01/08/08,7:30,269.2,12.2,99.4,1372.486,,
01/08/08,8:00,269.0,12.3,99.6,1372.484,,
01/08/08,8:30,269.0,12.3,99.6,1372.484,,
01/08/08,9:00,269.2,12.3,99.4,1372.486,,
01/08/08,9:30,269.2,12.2,99.4,1372.486,,
01/08/08,10:00,268.6,12.2,100.0,1372.480,,
01/08/08,10:30,269.0,12.2,99.6,1372.484,,
01/08/08,11:00,268.7,12.2,99.9,1372.481,,
01/08/08,11:30,268.5,12.3,100.1,1372.479,,
01/08/08,12:00,268.9,12.3,99.7,1372.483,,
01/08/08,12:30,269.1,12.2,99.5,1372.485,,
01/08/08,13:00,269.2,12.2,99.4,1372.486,,
01/08/08,13:30,270.3,12.2,98.3,1372.497,,
01/08/08,14:00,270.0,12.2,98.6,1372.494,,
01/08/08,14:30,270.3,12.2,98.3,1372.497,,
01/08/08,15:00,270.9,12.2,97.7,1372.503,,
01/08/08,15:30,270.8,12.2,97.8,1372.502,,
01/08/08,16:00,270.8,12.2,97.8,1372.502,,
01/08/08,16:30,271.1,12.2,97.5,1372.505,,
01/08/08,17:00,271.0,12.2,97.6,1372.504,,
01/08/08,17:30,270.4,12.2,98.2,1372.498,,
01/08/08,18:00,270.6,12.2,98.0,1372.500,,
01/08/08,18:30,270.8,12.2,97.8,1372.502,,
01/08/08,19:00,270.7,12.2,97.9,1372.501,,
01/08/08,19:30,270.3,12.2,98.3,1372.497,,
01/08/08,20:00,270.2,12.2,98.4,1372.496,,
01/08/08,20:30,270.5,12.2,98.1,1372.499,,
01/08/08,21:00,270.8,12.2,97.8,1372.502,,
01/08/08,21:30,270.5,12.2,98.1,1372.499,,
01/08/08,22:00,271.0,12.3,97.6,1372.504,,
01/08/08,22:30,270.7,12.2,97.9,1372.501,,
01/08/08,23:00,271.3,12.2,97.3,1372.507,,
01/08/08,23:30,271.2,12.2,97.4,1372.506,,
01/09/08,0:00,271.0,12.2,97.6,1372.504,,
01/09/08,0:30,271.2,12.2,97.4,1372.506,,
01/09/08,1:00,271.0,12.2,97.6,1372.504,,
01/09/08,1:30,271.5,12.2,97.1,1372.509,,
01/09/08,2:00,272.1,12.2,96.5,1372.515,,
01/09/08,2:30,271.7,12.2,96.9,1372.511,,
01/09/08,3:00,272.1,12.2,96.5,1372.515,,
01/09/08,3:30,271.5,12.2,97.1,1372.509,,
01/09/08,4:00,271.9,12.2,96.7,1372.513,,
01/09/08,4:30,271.6,12.2,97.0,1372.510,,
01/09/08,5:00,271.9,12.2,96.7,1372.513,,
01/09/08,5:30,271.7,12.2,96.9,1372.511,,
01/09/08,6:00,272.0,12.2,96.6,1372.514,,
01/09/08,6:30,272.3,12.2,96.3,1372.517,,
01/09/08,7:00,271.7,12.2,96.9,1372.511,,
01/09/08,7:30,271.5,12.2,97.1,1372.509,,
01/09/08,8:00,271.5,12.2,97.1,1372.509,,
01/09/08,8:30,271.2,12.2,97.4,1372.506,,
01/09/08,9:00,271.5,12.2,97.1,1372.509,,
01/09/08,9:30,272.3,12.2,96.3,1372.517,,
01/09/08,10:00,271.8,12.2,96.8,1372.512,,
01/09/08,10:30,271.4,12.2,97.2,1372.508,,
01/09/08,11:00,271.6,12.2,97.0,1372.510,,
01/09/08,11:30,272.8,12.2,95.8,1372.522,,
01/09/08,12:00,272.7,12.2,95.9,1372.521,,
01/09/08,12:30,272.9,12.2,95.7,1372.523,,
01/09/08,13:00,273.0,12.2,95.6,1372.524,,
01/09/08,13:30,273.4,12.2,95.2,1372.528,,
01/09/08,14:00,273.7,12.2,94.9,1372.531,,
01/09/08,14:30,274.2,12.3,94.4,1372.536,,
01/09/08,15:00,274.5,12.2,94.1,1372.539,,
01/09/08,15:30,274.1,12.2,94.5,1372.535,,
01/09/08,16:00,274.0,12.2,94.6,1372.534,,
01/09/08,16:30,274.0,12.2,94.6,1372.534,,
01/09/08,17:00,273.8,12.2,94.8,1372.532,,
01/09/08,17:30,274.4,12.2,94.2,1372.538,,
01/09/08,18:00,274.0,12.2,94.6,1372.534,,
01/09/08,18:30,273.4,12.2,95.2,1372.528,,
01/09/08,19:00,273.3,12.2,95.3,1372.527,,
01/09/08,19:30,273.4,12.2,95.2,1372.528,,
01/09/08,20:00,273.3,12.2,95.3,1372.527,,
01/09/08,20:30,272.9,12.2,95.7,1372.523,,
01/09/08,21:00,272.4,12.2,96.2,1372.518,,
01/09/08,21:30,272.3,12.2,96.3,1372.517,,
01/09/08,22:00,272.4,12.2,96.2,1372.518,,
01/09/08,22:30,272.0,12.2,96.6,1372.514,,
01/09/08,23:00,271.2,12.2,97.4,1372.506,,
01/09/08,23:30,271.8,12.2,96.8,1372.512,,
01/10/08,0:00,271.5,12.2,97.1,1372.509,,
01/10/08,0:30,271.9,12.2,96.7,1372.513,,
01/10/08,1:00,271.8,12.2,96.8,1372.512,,
01/10/08,1:30,271.5,12.2,97.1,1372.509,,
01/10/08,2:00,271.4,12.2,97.2,1372.508,,
01/10/08,2:30,271.5,12.2,97.1,1372.509,,
01/10/08,3:00,271.7,12.2,96.9,1372.511,,
01/10/08,3:30,271.4,12.2,97.2,1372.508,,
01/10/08,4:00,271.9,12.2,96.7,1372.513,,
01/10/08,4:30,271.7,12.2,96.9,1372.511,,
01/10/08,5:00,271.7,12.2,96.9,1372.511,,
01/10/08,5:30,272.0,12.2,96.6,1372.514,,
01/10/08,6:00,271.9,12.2,96.7,1372.513,,
01/10/08,6:30,271.7,12.2,96.9,1372.511,,
01/10/08,7:00,272.1,12.2,96.5,1372.515,,
01/10/08,7:30,271.7,12.2,96.9,1372.511,,
01/10/08,8:00,272.1,12.2,96.5,1372.515,,
01/10/08,8:30,271.9,12.2,96.7,1372.513,,
01/10/08,9:00,272.0,12.2,96.6,1372.514,,
01/10/08,9:30,271.9,12.1,96.7,1372.513,,
01/10/08,10:00,272.0,12.2,96.6,1372.514,,
01/10/08,10:30,271.4,12.2,97.2,1372.508,,
01/10/08,11:00,271.7,12.2,96.9,1372.511,,
01/10/08,11:30,271.8,12.2,96.8,1372.512,,
01/10/08,12:00,271.6,12.2,97.0,1372.510,,
01/10/08,12:30,272.3,12.1,96.3,1372.517,,
01/10/08,13:00,273.1,12.2,95.5,1372.525,,
01/10/08,13:30,273.5,12.2,95.1,1372.529,,
01/10/08,14:00,273.8,12.2,94.8,1372.532,,
01/10/08,14:30,273.5,12.2,95.1,1372.529,,
01/10/08,15:00,273.6,12.2,95.0,1372.530,,
01/10/08,15:30,273.7,12.2,94.9,1372.531,,
01/10/08,16:00,273.4,12.2,95.2,1372.528,,
01/10/08,16:30,274.0,12.1,94.6,1372.534,,
01/10/08,17:00,273.9,12.2,94.7,1372.533,,
01/10/08,17:30,274.2,12.2,94.4,1372.536,,
01/10/08,18:00,273.8,12.2,94.8,1372.532,,
01/10/08,18:30,273.8,12.1,94.8,1372.532,,
01/10/08,19:00,273.1,12.2,95.5,1372.525,,
01/10/08,19:30,273.0,12.2,95.6,1372.524,,
01/10/08,20:00,273.6,12.2,95.0,1372.530,,
01/10/08,20:30,272.9,12.2,95.7,1372.523,,
01/10/08,21:00,272.7,12.1,95.9,1372.521,,
01/10/08,21:30,273.0,12.1,95.6,1372.524,,
01/10/08,22:00,273.0,12.2,95.6,1372.524,,
01/10/08,22:30,272.6,12.2,96.0,1372.520,,
01/10/08,23:00,273.2,12.2,95.4,1372.526,,
01/10/08,23:30,273.4,12.2,95.2,1372.528,,
01/11/08,0:00,273.6,12.2,95.0,1372.530,,
01/11/08,0:30,273.4,12.2,95.2,1372.528,,
01/11/08,1:00,273.4,12.2,95.2,1372.528,,
01/11/08,1:30,273.4,12.2,95.2,1372.528,,
01/11/08,2:00,273.5,12.2,95.1,1372.529,,
01/11/08,2:30,273.6,12.2,95.0,1372.530,,
01/11/08,3:00,273.5,12.2,95.1,1372.529,,
01/11/08,3:30,273.4,12.1,95.2,1372.528,,
01/11/08,4:00,273.3,12.2,95.3,1372.527,,
01/11/08,4:30,274.0,12.2,94.6,1372.534,,
01/11/08,5:00,273.7,12.2,94.9,1372.531,,
01/11/08,5:30,273.7,12.2,94.9,1372.531,,
01/11/08,6:00,273.9,12.2,94.7,1372.533,,
01/11/08,6:30,274.0,12.1,94.6,1372.534,,
01/11/08,7:00,273.9,12.1,94.7,1372.533,,
01/11/08,7:30,273.4,12.2,95.2,1372.528,,
01/11/08,8:00,272.8,12.2,95.8,1372.522,,
01/11/08,8:30,273.0,12.1,95.6,1372.524,,
01/11/08,9:00,272.2,12.2,96.4,1372.516,,
01/11/08,9:30,272.3,12.2,96.3,1372.517,,
01/11/08,10:00,272.8,12.2,95.8,1372.522,,
01/11/08,10:30,272.4,12.2,96.2,1372.518,,
01/11/08,11:00,272.5,12.1,96.1,1372.519,,
01/11/08,11:30,273.2,12.2,95.4,1372.526,,
01/11/08,12:00,273.7,12.2,94.9,1372.531,,
01/11/08,12:30,274.3,12.1,94.3,1372.537,,
01/11/08,13:00,274.5,12.1,94.1,1372.539,,
01/11/08,13:30,274.6,12.0,94.0,1372.540,,
01/11/08,14:00,274.1,12.1,94.5,1372.535,,
01/11/08,14:30,274.7,12.1,93.9,1372.541,,
01/11/08,15:00,274.7,12.1,93.9,1372.541,,
01/11/08,15:30,275.3,12.1,93.3,1372.547,,
01/11/08,16:00,275.3,12.2,93.3,1372.547,,
01/11/08,16:30,275.0,12.2,93.6,1372.544,,
01/11/08,17:00,274.9,12.2,93.7,1372.543,,
01/11/08,17:30,274.8,12.1,93.8,1372.542,,
01/11/08,18:00,274.4,12.1,94.2,1372.538,,
01/11/08,18:30,274.9,12.1,93.7,1372.543,,
01/11/08,19:00,274.7,12.1,93.9,1372.541,,
01/11/08,19:30,274.1,12.1,94.5,1372.535,,
01/11/08,20:00,274.0,12.2,94.6,1372.534,,
01/11/08,20:30,274.4,12.1,94.2,1372.538,,
01/11/08,21:00,274.3,12.2,94.3,1372.537,,
01/11/08,21:30,274.5,12.2,94.1,1372.539,,
01/11/08,22:00,274.2,12.1,94.4,1372.536,,
01/11/08,22:30,273.8,12.1,94.8,1372.532,,
01/11/08,23:00,273.4,12.1,95.2,1372.528,,
01/11/08,23:30,273.3,12.1,95.3,1372.527,,
01/12/08,0:00,273.4,12.1,95.2,1372.528,,
01/12/08,0:30,273.0,12.1,95.6,1372.524,,
01/12/08,1:00,273.2,12.1,95.4,1372.526,,
01/12/08,1:30,273.1,12.2,95.5,1372.525,,
01/12/08,2:00,273.1,12.1,95.5,1372.525,,
01/12/08,2:30,273.4,12.1,95.2,1372.528,,
01/12/08,3:00,273.6,12.1,95.0,1372.530,,
01/12/08,3:30,273.0,12.1,95.6,1372.524,,
01/12/08,4:00,273.2,12.1,95.4,1372.526,,
01/12/08,4:30,272.9,12.2,95.7,1372.523,,
01/12/08,5:00,272.8,12.0,95.8,1372.522,,
01/12/08,5:30,272.7,12.0,95.9,1372.521,,
01/12/08,6:00,272.5,12.1,96.1,1372.519,,
01/12/08,6:30,272.2,12.1,96.4,1372.516,,
01/12/08,7:00,271.8,12.1,96.8,1372.512,,
01/12/08,7:30,272.0,12.2,96.6,1372.514,,
01/12/08,8:00,271.1,12.1,97.5,1372.505,,
01/12/08,8:30,271.4,12.1,97.2,1372.508,,
01/12/08,9:00,272.0,12.2,96.6,1372.514,,
01/12/08,9:30,271.9,12.2,96.7,1372.513,,
01/12/08,10:00,271.9,12.0,96.7,1372.513,,